Regional Weather Roundup
Issued by NWS

Home | Current Version | Previous Version | Text Only | Print | Product List | Glossary Off
Versions: 1 2 3 4 5 6 7 8 9 10 11 12 13 14 15 16 17 18 19 20 21 22 23 24 25 26 27 28 29 30 31 32 33 34 35 36 37 38 39 40 41 42 43 44 45 46 47 48 49 50

000
ASUS43 KMPX 161010
RWRMN
WEATHER ROUNDUP FOR MINNESOTA
NATIONAL WEATHER SERVICE TWIN CITIES/CHANHASSEN MN
500 AM CDT TUE SEP 16 2014


NOTE: "FAIR" INDICATES FEW OR NO CLOUDS BELOW 12,000 FEET WITH NO
SIGNIFICANT WEATHER AND/OR OBSTRUCTIONS TO VISIBILITY. N/A MEANS
CURRENT SKY AND/OR WEATHER CONDITIONS ARE NOT AVAILABLE.

MNZ060>063-068>070-161100-
   Twin Cities Metro

CITY           SKY/WX    TMP DP  RH WIND       PRES   REMARKS
TWIN CITIES    CLEAR     44  40  85 S3        30.20F
ST PAUL        CLEAR     43  42  97 CALM      30.22S
CRYSTAL        CLEAR     42  40  92 SE3       30.18F
BLAINE         CLEAR     43  43 100 CALM      30.19S
LAKEVILLE      CLEAR     37  36  93 CALM      30.21S
EDEN PRAIRIE   CLEAR     41  39  93 SW3       30.19F
SOUTH ST PAUL  CLEAR     42  40  94 CALM      30.20S
LAKE ELMO      FAIR      37  37 100 S3        30.21S
$$
MNZ001>005-007-008-013>017-022>024-027-028-161100-
   Northwest Minnesota

CITY           SKY/WX    TMP DP  RH WIND       PRES   REMARKS
BEMIDJI        CLEAR     44  37  79 SW7       30.09S
HALLOCK        CLEAR     39  37  93 S8        30.00F
ROSEAU         PTCLDY    52  43  71 SW12      29.99F
WARROAD        MOCLDY    48  43  81 SW9       29.99F
THIEF RVR FALL CLEAR     45  37  76 SW9       30.06S
CROOKSTON      CLEAR     43  39  87 S7        30.08S
FOSSTON        CLEAR     39  36  87 S7        30.10S
DETROIT LAKES  CLEAR     46  37  71 SW7       30.12F
MOORHEAD       CLEAR     43  41  93 S6        30.12S
PARK RAPIDS    CLEAR     40  35  83 SW5       30.11F
MAHNOMEN       FAIR      39  36  88 S6        30.10F
$$
MNZ006-009>011-018-025>026-161100-
   North Central Minnesota

CITY           SKY/WX    TMP DP  RH WIND       PRES   REMARKS
BAUDETTE       MOCLDY    44  40  85 SW6       30.00S
FLAG ISLAND    CLOUDY    52  39  62 SW16      29.93F
INTL FALLS     CLEAR     39  37  92 SW6       30.00F
WASKISH        CLEAR     52  45  76 SW3       30.04S
BIG FORK       CLEAR     46  39  76 SW9       30.06F
LONGVILLE      CLEAR     46  37  71 SW7       30.10S
GRAND RAPIDS   CLEAR     46  36  66 W7        30.09F
CRANE LAKE     PTCLDY    41  39  93 CALM      30.04S
ORR            PTCLDY    39  36  87 CALM      30.02F
COOK           CLEAR     43  37  81 SW5       30.05F
WALKER         FAIR      47  37  66 SW10      30.10S
$$
MNZ012-019>021-037-161100-
   Northeast Minnesota

CITY           SKY/WX    TMP DP  RH WIND       PRES   REMARKS
DULUTH         CLEAR     46  37  71 W14       30.10S
ELY            CLEAR     43  37  81 SW6       30.04F
HIBBING        CLEAR     31  28  89 CALM      30.08F
EVELETH        CLEAR     36  36 100 CALM      30.08F
DULUTH HARBOR  CLEAR     45  39  81 SW14      30.11F
TWO HARBORS    CLEAR     43  36  75 W8        30.06F
SILVER BAY     CLEAR     45  39  81 W5        30.04F
GRAND MARAIS     N/A     46  38  73 VRB5      30.03F
G MARAIS ARPRT MOCLDY    41  34  75 SW3       30.03F
$$
MNZ029>031-032-039>041-046>048-054>057-064-161100-
   West Central Minnesota

CITY           SKY/WX    TMP DP  RH WIND       PRES   REMARKS
FERGUS FALLS   CLEAR     39  34  81 S7        30.15S
WHEATON        CLEAR     39  36  87 S6        30.16F
MORRIS         CLEAR     37  36  93 S6        30.15F
ALEXANDRIA     CLEAR     44  36  73 SW10      30.17F
ELBOW LAKE     FAIR      37  34  90 S8        30.15S
WADENA         CLEAR     43  36  75 SW5       30.13F
GLENWOOD       CLEAR     39  36  87 SW8       30.17F
APPLETON       CLEAR     39  37  93 CALM      30.17S
BENSON         CLEAR     39  36  87 CALM      30.17F
ORTONVILLE     CLEAR     43  37  81 S5        30.16F
MADISON        CLEAR     43  39  87 SW3       30.17F
WILLMAR        FAIR      39  36  87 CALM      30.19F
$$
MNZ033>034-036-042>043-049>051-058-059-161100-
   Central Minnesota

CITY           SKY/WX    TMP DP  RH WIND       PRES   REMARKS
ST CLOUD       CLEAR     40  37  89 CALM      30.18S
SAUK CENTRE    FAIR      40  35  83 SW5       30.17F
PAYNESVILLE    CLEAR     34  34  99 SW3       30.18F
AITKIN         CLEAR     48  37  66 SW7       30.11S
PINE RIVER     CLEAR     37  34  87 CALM      30.16S
BRAINERD       CLEAR     39  35  86 SW6       30.14F
STAPLES        CLEAR     43  36  75 SW5       30.14S
LONG PRAIRIE   FAIR      39  36  87 S6        30.17S
LITTLE FALLS   CLEAR     37  34  87 CALM      30.16F
LITCHFIELD     CLEAR     45  39  81 CALM      30.19F
BUFFALO        CLEAR     39  37  90 CALM      30.20S
MAPLE LAKE     CLEAR     43  41  91 CALM      30.19F
$$
MNZ037-044-045-052-053-161100-
   East Central Minnesota

CITY           SKY/WX    TMP DP  RH WIND       PRES   REMARKS
PRINCETON      CLEAR     39  37  93 S1        30.18S
MORA           CLEAR     37  36  93 CALM      30.18S
CAMBRIDGE      CLEAR     41  34  75 CALM      30.16F
RUSH CITY      CLEAR     37  36  94 CALM      30.18S
MOOSE LAKE     CLEAR     34  34 100 CALM      30.12F
HINCKLEY       FAIR      36  36 100 CALM      30.16S
CLOQUET        CLEAR     45  37  76 SW8       30.11S
MCGREGOR       CLEAR     43  36  75 SW6       30.13S
$$
MNZ071>073-080-081-089-090-097-098-161100-
   Southwest Minnesota

CITY           SKY/WX    TMP DP  RH WIND       PRES   REMARKS
MONTEVIDEO     CLEAR     41  36  81 SW6       30.19S
GRANITE FALLS  CLEAR     35  34  96 S6        30.20F WCI  30
CANBY          CLEAR     47  39  75 SW6       30.19S
MARSHALL       CLEAR     41  36  81 SW9       30.18F
REDWOOD FALLS  CLEAR     42  37  82 SW8       30.19F
OLIVIA         CLEAR     39  36  87 S3        30.18F
PIPESTONE      CLEAR     41  36  81 S3        30.20F HAZE
WINDOM         CLEAR     37  36  93 CALM      30.22S
WORTHINGTON    CLEAR     39  37  93 SW3       30.23S
JACKSON        CLEAR     41  37  87 SW3       30.22F
TRACY          CLEAR     44  40  86 SW8       30.20F
SLAYTON        CLEAR     42  39  88 CALM      30.22S
$$
MNZ065>067-074>077-082>085-091>093-161100-
   South Central Minnesota

CITY           SKY/WX    TMP DP  RH WIND       PRES   REMARKS
MANKATO        CLEAR     43  36  75 S5        30.21F
NEW ULM        CLEAR     39  39 100 CALM      30.21S
ST JAMES       CLEAR     41  37  87 S3        30.22F
FAIRMONT       CLEAR     45  36  70 SW6       30.22F
GLENCOE        CLEAR     40  36  87 CALM      30.19F
FARIBAULT      CLEAR     43  37  81 CALM      30.21F
OWATONNA       CLEAR     41  37  87 S3        30.22S
WASECA         CLEAR     36  32  87 CALM      30.23F
ALBERT LEA     CLEAR     39  39 100 CALM      30.22F
$$
MNZ078>079-086>088-094>096-161100-
   Southeast Minnesota

CITY           SKY/WX    TMP DP  RH WIND       PRES   REMARKS
ROCHESTER      CLEAR     41  36  82 SW7       30.23S
RED WING       CLEAR     37  36  93 CALM      30.21S
STANTON        CLEAR     40  37  87 CALM      30.20S
DODGE CENTER   PTCLDY    39  37  93 SW5       30.22S
WINONA         CLEAR     41  39  93 CALM      30.23S
AUSTIN         CLEAR     37  37 100 CALM      30.22F FOG
PRESTON        CLEAR     40  40  97 SW6       30.23S
$$
ABBREVIATIONS USED IN REMARKS
   TC - TEMPERATURES IN CELSIUS
  WCI - WIND CHILL INDEX
   HX - HEAT INDEX
  VSB - VISIBILITY
$$


USA.gov is the U.S. government's official web portal to all federal, state and local government web resources and services.